Starlink 33798

operational
NORAD ID: 63449 Int'l Des: 2025-069 Owner: SPXS Country: US Constellation: starlink
LEOCIRCULAR

Starlink 33798について

説明を読み込み中...

リアルタイム位置

3D地球を読み込み中...

次回通過

高度履歴

Altitude vs Time

uPlot chart will show altitude changes over time

軌道要素

1 63449U 25069S 26033.17979743 .00030730 00000-0 10453-2 0 9997
2 63449 53.1590 307.7148 0001291 78.3455 281.7691 15.30202355 47692
Epoch: Feb 2, 2026 • Age: 27 hours

現在のステータス

高度 475.2 km
速度 7.63 km/s
衛星直下点 8.52°N, 132.99°W
打ち上げ日 Apr 4, 2025
運用期間 0.8 years
タイプ internet

技術仕様

分類 Payload
質量 575.00 kg
乾燥質量 530.00 kg
総質量 575.00 kg
長さ 0.30 m
直径 4.10 m
スパン 29.00 m
形状 Box + pan
製造者 SPXS
バスタイプ Starlink V2MO
フェーズステータス In Orbit
所有者/国 SPXS/US

大規模コンステレーション

Loading constellations...